Location: Limoges
(45.8500°N, 1.2500°E)
Time: 02:04:36
(UTC+01:00)

ISS - Pass Details

Date: 05 December 2020
Orbit: 418 x 419 km, 51.6° (Epoch: 17 January)

Event Time Altitude Azimuth Distance (km) Brightness Sun altitude
Rises 18:57:30 0° 297° (WNW) 2,368 0.8 -17.9°
Reaches altitude 10° 18:59:37 10° 297° (WNW) 1,501 -0.3 -18.2°
Maximum altitude 19:02:59 82° 211° (SSW) 427 -3.8 -18.8°
Enters shadow 19:03:34 58° 133° (SE) 493 -3.7 -18.9°
